User: anonymous   Login
Location: Caltech
(34.1382°N, 118.1253°W)
Time: 17:46:28
(UTC-07:00)
Language:

CZ-2C R/B - Orbit

View from above orbital plane
View from above orbital plane
View from above satellite
View from above satellite

Ground track
Ground track

The orbit data is extracted from the following two-line orbital elements,

1 28480U 04046B   17232.31659066 -.00000016 +00000-0 +93148-5 0  9995
2 28480 098.1968 324.3781 0142680 035.7628 005.3387 14.25644743663354
Epoch (UTC): 20 August 2017 07:35:53
Eccentricity: 0.0142680
inclination: 98.1968°
perigee height: 704 km
apogee height: 909 km
right ascension of ascending node: 324.3781°
argument of perigee: 35.7628°
revolutions per day: 14.25644743
mean anomaly at epoch: 5.3387°
orbit number at epoch: 66335

The dashed part of the orbit path shows where the satellite is in the earth's shadow,  

DLR